Location: Poughquag
(41.6090°N, 73.6820°W)
Time: 20:18:15
(UTC-04:00)

STARLINK-1326 - Pass Details

Date: 29 May 2020
Orbit: 379 x 380 km, 53.0° (Epoch: 04 July)

Event Time Altitude Azimuth Distance (km) Brightness Sun altitude
Exits shadow 01:32:24 12° 62° (ENE) 1,305 6.0 -26.0°
Drops below altitude 10° 01:32:38 10° 61° (ENE) 1,397 6.1 -26.0°
Sets 01:34:43 0° 56° (NE) 2,252 7.4 -25.9°
